Tracking 19794 objects as of 21-Jul-2019
HD Live streaming from Space Station
objects crossing your sky now

COSMOS 1275 DEB

Track COSMOS 1275 DEB now!
10-day predictions


NORAD ID: 15780
Int'l Code: 1981-053KH
Perigee: 895.0 km
Apogee: 977.0 km
Inclination: 82.8 °
Period: 103.6 minutes
Semi major axis: 7307 km
RCS: 0.022 m2 (small)
Launch date: June 4, 1981
Source: Commonwealth of Independent States (former USSR) (CIS)
Launch site: PLESETSK MISSILE AND SPACE COMPLEX (PKMTR)

Note: This is SATELLITE DEBRIS
aabbcc
Your satellite tracking list
Your tracking list is empty




NASA's NSSDC Master Catalog

Two Line Element Set (TLE):
1 15780U 81053KE  19202.03702560  .00000312  00000-0  23777-3 0  9990
2 15780  82.8174  49.0847 0056099 166.9845 316.8537 13.89924349729422
Source of the keplerian elements: AFSPC